TimeCST,TemperatureF,Dew PointF,Humidity,Sea Level PressureIn,VisibilityMPH,Wind Direction,Wind SpeedMPH,Gust SpeedMPH,PrecipitationIn,Events,Conditions,WindDirDegrees,DateUTC
12:15 AM,43.3,39.2,85,30.28,10.0,North,9.2,-,N/A,,Overcast,10,2013-01-03 06:15:00
12:35 AM,43.2,39.2,86,30.28,10.0,North,8.1,-,N/A,,Overcast,350,2013-01-03 06:35:00
12:55 AM,43.2,39.0,85,30.29,10.0,North,8.1,-,N/A,,Overcast,10,2013-01-03 06:55:00
1:15 AM,43.0,39.2,86,30.28,10.0,NNE,4.6,-,N/A,,Overcast,20,2013-01-03 07:15:00
1:35 AM,42.8,38.7,85,30.29,10.0,North,5.8,-,N/A,,Overcast,350,2013-01-03 07:35:00
1:55 AM,42.4,38.5,86,30.30,10.0,NNW,8.1,-,N/A,,Overcast,340,2013-01-03 07:55:00
2:15 AM,42.3,38.3,86,30.29,10.0,North,8.1,-,N/A,,Overcast,350,2013-01-03 08:15:00
2:35 AM,42.3,38.5,86,30.28,10.0,North,6.9,-,N/A,,Overcast,360,2013-01-03 08:35:00
2:55 AM,42.3,38.3,86,30.29,10.0,North,6.9,-,N/A,,Overcast,350,2013-01-03 08:55:00
3:15 AM,42.3,38.5,86,30.30,10.0,North,6.9,-,N/A,,Overcast,10,2013-01-03 09:15:00
3:35 AM,42.4,38.5,86,30.30,10.0,North,5.8,-,N/A,,Overcast,360,2013-01-03 09:35:00
3:55 AM,42.3,38.5,86,30.31,10.0,North,8.1,-,N/A,,Overcast,360,2013-01-03 09:55:00
4:15 AM,42.3,38.3,86,30.31,10.0,North,9.2,-,N/A,,Overcast,360,2013-01-03 10:15:00
4:35 AM,42.3,38.5,86,30.31,10.0,North,6.9,-,N/A,,Overcast,360,2013-01-03 10:35:00
4:55 AM,42.4,38.5,86,30.31,10.0,North,9.2,-,N/A,,Overcast,350,2013-01-03 10:55:00
5:15 AM,42.4,38.5,86,30.31,10.0,North,5.8,-,N/A,,Overcast,360,2013-01-03 11:15:00
5:35 AM,42.4,38.5,86,30.31,10.0,North,5.8,-,N/A,,Overcast,10,2013-01-03 11:35:00
5:55 AM,42.4,38.3,85,30.32,10.0,North,5.8,-,N/A,,Overcast,350,2013-01-03 11:55:00
6:00 AM,42.8,37.4,81,30.31,10.0,North,6.9,-,N/A,,Overcast,360,2013-01-03 12:00:00
6:55 AM,42.8,37.4,81,30.33,10.0,North,6.9,-,N/A,,Overcast,360,2013-01-03 12:55:00
7:45 AM,42.8,37.4,81,30.36,10.0,North,4.6,-,N/A,,Overcast,350,2013-01-03 13:45:00
8:50 AM,42.8,37.4,81,30.38,10.0,North,8.1,-,N/A,,Mostly Cloudy,360,2013-01-03 14:50:00
9:45 AM,42.8,37.4,81,30.40,10.0,North,12.7,-,N/A,,Mostly Cloudy,360,2013-01-03 15:45:00
10:50 AM,46.4,35.6,66,30.39,10.0,NNE,10.4,-,N/A,,Scattered Clouds,30,2013-01-03 16:50:00
11:50 AM,48.2,35.6,62,30.36,10.0,North,11.5,-,N/A,,Clear,350,2013-01-03 17:50:00
12:50 PM,51.8,33.8,50,30.32,10.0,NNE,11.5,-,N/A,,Clear,30,2013-01-03 18:50:00
1:45 PM,53.6,33.8,47,30.30,10.0,North,6.9,-,N/A,,Clear,10,2013-01-03 19:45:00
2:50 PM,53.6,33.8,47,30.30,10.0,North,11.5,17.3,N/A,,Clear,10,2013-01-03 20:50:00
3:50 PM,55.4,33.8,44,30.31,10.0,North,12.7,18.4,N/A,,Clear,360,2013-01-03 21:50:00
4:55 PM,51.8,30.2,44,30.34,10.0,North,8.1,16.1,N/A,,Clear,360,2013-01-03 22:55:00
5:49 PM,48.2,30.2,50,30.37,7.0,North,5.8,-,N/A,,Clear,360,2013-01-03 23:49:00
6:51 PM,44.6,33.8,66,30.39,10.0,North,4.6,-,N/A,,Clear,10,2013-01-04 00:51:00
7:50 PM,46.4,33.8,62,30.41,10.0,NNE,6.9,-,N/A,,Clear,30,2013-01-04 01:50:00
8:51 PM,46.4,35.6,66,30.41,10.0,NNE,5.8,-,N/A,,Overcast,20,2013-01-04 02:51:00
10:15 PM,46.8,34.9,63,30.41,10.0,NNE,6.9,-,N/A,,Overcast,30,2013-01-04 04:15:00
10:35 PM,46.4,35.1,65,30.42,10.0,NNE,4.6,-,N/A,,Overcast,20,2013-01-04 04:35:00
10:55 PM,46.2,35.2,66,30.41,10.0,NE,6.9,-,N/A,,Overcast,50,2013-01-04 04:55:00
11:15 PM,45.9,35.2,66,30.41,10.0,NE,5.8,-,N/A,,Overcast,40,2013-01-04 05:15:00
11:35 PM,45.7,34.9,66,30.42,10.0,NE,4.6,-,N/A,,Overcast,40,2013-01-04 05:35:00
11:55 PM,45.5,34.5,65,30.41,10.0,NE,6.9,-,N/A,,Overcast,40,2013-01-04 05:55:00